TimeIST,TemperatureF,Dew PointF,Humidity,Sea Level PressureIn,VisibilityMPH,Wind Direction,Wind SpeedMPH,Gust SpeedMPH,PrecipitationIn,Events,Conditions,WindDirDegrees,DateUTC
2:00 AM,65,49,45,29.95,,NNE,3.5,,,,,20,2012-11-19 00:00:00
5:50 AM,62.6,50.0,63,29.98,-9999.0,North,8.1,-,N/A,,Clear,10,2012-11-19 03:50:00
6:50 AM,59.0,51.8,77,30.01,-9999.0,NNE,8.1,-,N/A,,Clear,30,2012-11-19 04:50:00
7:50 AM,60.8,51.8,72,30.01,-9999.0,NE,9.2,-,N/A,,Clear,40,2012-11-19 05:50:00
8:00 AM,67,51,45,30.02,9,NE,3.5,,,,,40,2012-11-19 06:00:00
8:50 AM,64.4,53.6,68,30.04,-9999.0,NNE,11.5,-,N/A,,Clear,30,2012-11-19 06:50:00
9:50 AM,69.8,53.6,56,30.01,-9999.0,NE,10.4,-,N/A,,Clear,40,2012-11-19 07:50:00
10:50 AM,73.4,51.8,47,30.01,-9999.0,NE,8.1,-,N/A,,Clear,50,2012-11-19 08:50:00
11:50 AM,75.2,51.8,44,29.98,-9999.0,NE,11.5,-,N/A,,Clear,40,2012-11-19 09:50:00
12:50 PM,77.0,50.0,39,29.95,-9999.0,NNE,13.8,-,N/A,,Clear,30,2012-11-19 10:50:00
1:50 PM,78.8,50.0,36,29.95,-9999.0,NNE,15.0,-,N/A,,Clear,20,2012-11-19 11:50:00
2:00 PM,80,49,23,29.96,12,NNE,6.9,,,,Scattered Clouds,30,2012-11-19 12:00:00
2:50 PM,78.8,48.2,34,29.95,-9999.0,NNE,13.8,-,N/A,,Clear,30,2012-11-19 12:50:00
3:50 PM,78.8,46.4,32,29.95,-9999.0,NNE,13.8,-,N/A,,Clear,20,2012-11-19 13:50:00
4:50 PM,77.0,48.2,36,29.95,-9999.0,North,10.4,-,N/A,,Clear,10,2012-11-19 14:50:00
5:50 PM,75.2,48.2,38,29.98,-9999.0,North,8.1,-,N/A,,Clear,360,2012-11-19 15:50:00
6:50 PM,69.8,53.6,56,30.01,-9999.0,ENE,3.5,-,N/A,,Clear,60,2012-11-19 16:50:00
7:50 PM,69.8,50.0,49,30.01,-9999.0,NE,5.8,-,N/A,,Clear,40,2012-11-19 17:50:00
8:00 PM,69,44,29,,,North,2.3,,,,,10,2012-11-19 18:00:00
8:50 PM,68.0,51.8,56,30.01,-9999.0,NE,5.8,-,N/A,,Clear,40,2012-11-19 18:50:00
9:50 PM,68.0,50.0,52,30.01,-9999.0,NE,5.8,-,N/A,,Clear,50,2012-11-19 19:50:00